Regional Weather Roundup
Issued by NWS

Home | Current Version | Previous Version | Text Only | Print | Product List | Glossary On
Versions: 1 2 3 4 5 6 7 8 9 10 11 12 13 14 15 16 17 18 19 20 21 22 23 24 25 26 27 28 29 30 31 32 33 34 35 36 37 38 39 40 41 42 43 44 45 46 47 48 49 50
000
ASUS43 KMKX 200900
RWRWI

WISCONSIN REGIONAL WEATHER ROUNDUP
NATIONAL WEATHER SERVICE MILWAUKEE/SULLIVAN WI
300 AM CST FRI JAN 20 2017

NOTE: "FAIR" INDICATES FEW OR NO CLOUDS BELOW 12,000 FEET WITH NO
SIGNIFICANT WEATHER AND/OR OBSTRUCTIONS TO VISIBILITY.

WIZ001-002-006>008-014>016-023>028-201000-
NORTHWEST WISCONSIN

CITY           SKY/WX    TMP DP  RH WIND       PRES   REMARKS
SUPERIOR ARPT  CLOUDY    32  32 100 CALM      29.69S FOG
ASHLAND        NOT AVBL
HAYWARD        CLOUDY    36  30  79 E3        29.68F
SIREN          DRIZZLE   36  34  95 CALM      29.68S
CUMBERLAND     DRIZZLE   32  32 100 SE5       29.67F WCI  27
RICE LAKE      DRIZZLE   34  33  94 E3        29.69F
CHETEK         NOT AVBL
LADYSMITH      RAIN      34  33  94 E6        29.71F WCI  29
EAU CLAIRE     CLOUDY    34  34 100 NE5       29.67F FOG     WCI  30
MENOMONIE        N/A    N/A N/A N/A MISG        N/A
NEW RICHMOND   CLOUDY    35  35 100 E6        29.66F FOG     WCI  30
OSCEOLA        CLOUDY    35  35 100 E8        29.69S FOG     WCI  29
$$

WIZ003>005-009-010-017-018-201000-
NORTH CENTRAL WISCONSIN

CITY           SKY/WX    TMP DP  RH WIND       PRES   REMARKS
MANITOWISH WTR NOT AVBL
ARBOR VITAE    CLOUDY    29  28  96 CALM      29.71F FOG
WOODRUFF       CLOUDY    29  28  96 CALM      29.71F FOG
RHINELANDER    PTCLDY    27  26  96 E3        29.71S FOG
EAGLE RIVER    CLOUDY    26  26 100 CALM      29.71F FOG
LAND O LAKES   CLOUDY    23  22  96 CALM      29.73F
PHILLIPS       CLOUDY    31  30  98 E3        29.68F
TOMAHAWK       CLOUDY    30  29  96 CALM      29.71F FOG
MEDFORD        MIX PCPN  32  31  98 E3        29.68F
MERRILL        CLOUDY    31  31 100 CALM        N/A  FOG
$$

WIZ029-030-035-036-043>047-201000-
CENTRAL WISCONSIN

CITY           SKY/WX    TMP DP  RH WIND       PRES   REMARKS
WAUSAU         CLOUDY    31  30  96 E7        29.70F FOG     WCI  24
MOSINEE        CLOUDY    32  32 100 E6        29.72S FOG     WCI  26
MARSHFIELD     MIX PCPN  33  31  92 E7        29.67F FOG     WCI  27
STEVENS POINT  MIX PCPN  31  31 100 E3        29.71F
WAUPACA        DRIZZLE   33  32  95 CALM      29.74F
WAUTOMA        LGT RAIN  33  32  96 NE9       29.70F FOG     WCI  25
WISC RAPIDS    NOT AVBL
CAMP DOUGLAS   CLOUDY    32  32 100 CALM      29.68F FOG
$$

WIZ011>013-019>022-031-037>040-048>050-201000-
NORTHEAST WISCONSIN

CITY           SKY/WX    TMP DP  RH WIND       PRES   REMARKS
ANTIGO         CLOUDY    30  30 100 CALM      29.72F FOG
SHAWANO        FOG       33  32  96 CALM      29.76F VSB 3/4
OCONTO         CLOUDY    31  31  99 NE3       29.77F VSB 1/4
STURGEON BAY   FOG       33  32  96 N3        29.75F VSB 1/4
GREEN BAY      FOG       34  34 100 NE6       29.75F VSB 1/4 WCI  29
MANITOWOC      NOT AVBL
APPLETON       DRZL/FOG  32  32 100 NE5       29.72F VSB 1/2 WCI  27
CLINTONVILLE   FOG       32  32 100 NE5       29.74F VSB 1/4 WCI  27
OSHKOSH        LGT RAIN  33  32  96 NE7       29.72F VSB 1/2 WCI  27
$$

WIZ032>034-041-042-053>061-201000-
SOUTHWEST WISCONSIN

CITY           SKY/WX    TMP DP  RH WIND       PRES   REMARKS
LA CROSSE      FOG       38  34  85 E3        29.68S VSB 1
SPARTA         CLOUDY    34  33  99 E7        29.70S FOG     WCI  28
VIROQUA        CLOUDY    34  34 100 E8        29.65F VSB 1   WCI  27
BOSCOBEL       FOG       36  35  96 NE3       29.67F VSB 1
PRAIRIE DU CHI FOG       34  33  96 CALM      29.67S VSB 1/2
PLATTEVILLE    CLOUDY    35  35 100 E6        29.66R VSB 1   WCI  30
$$

WIZ056-057-062-063-064-067-068-201000-
SOUTH CENTRAL WISCONSIN

CITY           SKY/WX    TMP DP  RH WIND       PRES   REMARKS
REEDSBURG      CLOUDY    34  34 100 E5        29.68F FOG     WCI  30
BARABOO/DELLS  FOG       34  33  98 NE7       29.68S VSB 1   WCI  28
LONE ROCK      FOG       35  35 100 E3        29.68S VSB 3/4
MINERAL POINT  LGT RAIN  36  36 100 E5        29.65S VSB 1   WCI  32
MADISON        CLOUDY    35  34  96 MISG      29.67F
MIDDLETON      CLOUDY    37  37 100 E8        29.67F WCI  30
WATERTOWN      DRIZZLE   35  35 100 NE9       29.68F WCI  28
MONROE         FOG       34  34 100 NE6       29.64S VSB 1/2 WCI  29
JANESVILLE     CLOUDY    36  36 100 E6        29.66S WCI  31
$$

WIZ051-052-058>065-066-070>072-201000-
SOUTHEAST WISCONSIN

CITY           SKY/WX    TMP DP  RH WIND       PRES   REMARKS
MILWAUKEE      LGT RAIN  38  36  92 E8        29.70F FOG     WCI  32
WAUKESHA       RAIN      34  34 100 E6        29.70F WCI  29
MILWAUKEE/TIMM RAIN      36  34  93 CALM      29.71F
RACINE         LGT RAIN  37  35  92 E12       29.71F FOG     WCI  29
KENOSHA        LGT RAIN  37  36  96 E16       29.68F FOG     WCI  28
FOND DU LAC    LGT RAIN  34  32  92 NE5       29.71F FOG     WCI  30
SHEBOYGAN      RAIN      35  33  92 NE6       29.72F VSB 1   WCI  30
WEST BEND      RAIN      34  34 100 NE7       29.71F WCI  28
JUNEAU         RAIN      34  34  99 NE8       29.70F WCI  27
$$

LSZ147-162-201000-
LAKE SUPERIOR

STATION/POSITION TIME  TEMP    WIND        PRES    WAVE
                       AIR SEA DIR/SP/G            HT/PER
                 (UTC) (F)     (DEG/KT/KT) (MB)    (FT/S)
DEVILS ISLAND    0800   38     190/  6/  8 1006.5R
PORT WING        0830   35      20/  2/  2 1006.1S
SAXON HARBOR     0830   33     190/  6/  8 1005.8F
$$

LMZ867-665-643>646-201000-
LAKE MICHIGAN

STATION/POSITION TIME  TEMP    WIND        PRES    WAVE
                       AIR SEA DIR/SP/G            HT/PER
                 (UTC) (F)     (DEG/KT/KT) (MB)    (FT/S)
NORTHPORT PIER   0840   33        CALM     1008.1F
SISTER BAY       0750   33        CALM       N/A
KEWAUNEE LAKESHO 0830   33      CALM  /  1 1007.4F
SHEBOYGAN LAKESH 0800   35      20/  7/  7 1007.8F
PORT WASHINGTON  0830   36      30/  7/  9 1007.5F
MILWAUKEE LAKESH 0830   36      70/  7/  7   N/A
KENOSHA   LAKESH 0800   36      60/ 13/ 15 1006.1
$$

TC  - TEMPERATURE IN CELSIUS
VSB - VISIBILITY IN STATUTE MILES
WCI - WIND CHILL INDEX
HX  - HEAT INDEX




USA.gov is the U.S. government's official web portal to all federal, state and local government web resources and services.